Probability
29 36 42 40 31 24 19 13 5 1 2 4 5 6 6 6 4 3 3 4 4 3 1 0 0 0 0 0 0 0 0 0 0 1 2 2 3 3 3 2 1 1 1
40 41 45 43 34 26 21 15 8 4 3 5 5 6 6 6 6 5 5 5 5 4 1 0 0 0 0 0 0 0 0 0 0 0 1 1 2 3 3 1 1 2 2
48 47 47 46 40 31 25 19 14 10 9 8 8 8 7 6 6 6 6 6 6 5 3 1 0 0 0 0 0 0 0 0 0 0 0 0 1 3 3 1 1 2 3
47 47 48 49 44 36 29 23 20 17 14 13 13 12 9 7 6 6 6 6 7 6 4 2 1 1 0 0 0 0 0 0 0 0 0 0 2 5 4 2 1 2 3
43 47 54 55 48 40 31 25 23 20 17 17 18 17 14 11 9 9 8 8 8 8 6 4 3 2 1 0 0 0 0 0 0 0 0 0 4 8 7 4 2 3 3
44 50 58 59 53 43 33 27 24 20 18 19 20 21 20 19 17 14 11 11 11 11 9 7 5 4 3 1 0 0 0 0 0 0 0 2 8 14 11 6 4 4 4
51 53 56 59 58 49 37 30 26 23 21 22 22 23 24 25 25 20 16 14 14 14 12 9 7 6 5 2 1 2 1 1 1 0 0 4 14 20 15 9 7 6 5
57 55 54 57 58 52 42 35 30 27 26 26 27 28 28 29 28 25 21 18 17 17 15 12 9 7 6 5 4 3 3 2 1 0 1 7 18 25 20 13 9 8 7
57 56 53 53 53 49 44 41 38 34 31 31 31 31 30 28 26 23 21 20 19 19 17 14 11 9 8 7 5 4 3 3 2 0 1 9 22 27 23 17 11 7 6
51 53 52 50 48 44 42 44 43 40 36 33 32 32 29 25 21 19 19 20 20 19 18 16 14 13 11 8 5 3 2 2 1 1 3 15 28 30 25 20 14 7 5
47 49 49 47 44 40 39 43 45 43 40 36 33 32 30 24 21 21 22 25 25 21 20 19 18 16 14 10 7 5 4 2 1 3 10 26 37 34 26 22 16 8 3
45 47 46 43 41 38 38 43 46 45 44 41 37 36 34 28 25 26 30 35 34 27 22 21 21 19 16 12 11 11 8 4 3 6 18 37 45 37 26 21 15 7 3
48 47 45 43 43 42 43 47 49 49 50 47 43 42 38 33 29 30 36 43 42 34 26 23 22 21 18 14 12 13 11 5 3 8 22 41 47 38 27 21 16 9 6
52 51 48 48 50 53 55 55 52 51 53 52 51 49 43 37 32 32 38 45 45 39 32 26 23 22 19 13 9 9 9 6 6 10 22 38 42 37 30 25 20 15 10
55 55 54 56 60 64 66 64 56 52 52 55 57 55 49 42 36 33 37 43 43 40 35 28 24 23 21 15 10 7 8 9 12 15 21 29 34 34 32 28 26 21 15
58 58 59 62 66 68 69 66 60 56 55 55 58 59 55 48 42 37 38 42 41 37 32 27 25 26 24 20 16 12 11 13 18 23 25 25 27 29 32 32 32 28 24
59 61 62 64 66 67 67 65 62 59 58 58 58 59 56 52 48 43 42 44 42 35 28 25 26 28 25 21 21 20 17 17 21 27 29 27 23 24 30 35 36 33 29
61 63 65 65 66 66 64 63 61 59 58 58 58 56 53 51 50 47 44 45 44 36 28 25 26 27 24 21 20 20 18 19 21 23 26 26 22 20 24 30 33 31 27
59 62 64 64 63 63 61 61 60 56 52 53 54 53 50 49 48 46 44 43 43 38 31 27 27 27 25 20 16 14 14 17 19 18 18 19 19 19 18 20 25 26 24
56 59 60 60 60 59 59 60 58 53 48 46 47 49 47 45 43 43 42 40 40 38 34 31 31 30 25 19 13 9 8 10 14 16 14 12 12 13 13 15 20 22 20
56 56 55 55 56 57 58 59 56 51 46 42 41 42 43 41 39 40 39 39 38 37 35 34 33 29 23 19 14 8 4 5 8 10 11 9 6 6 9 14 19 21 18
53 52 50 51 53 55 58 58 54 48 43 40 38 39 40 38 37 36 37 37 36 35 34 32 30 25 20 18 17 11 5 3 4 6 7 6 3 4 6 10 17 20 18
48 48 48 51 52 54 55 53 47 44 41 40 40 40 39 37 35 35 35 34 33 32 32 30 28 24 19 17 17 13 7 4 5 7 8 6 5 5 6 7 11 16 17
43 45 48 50 51 51 49 45 42 41 40 39 40 40 38 36 35 35 34 32 30 29 29 28 26 24 18 14 14 12 8 6 6 7 8 8 7 8 7 6 7 11 13
39 41 45 47 47 45 42 40 38 36 35 34 35 36 35 35 34 33 30 27 26 25 25 25 24 21 17 14 13 11 9 6 6 5 5 6 7 7 7 6 7 9 11
37 39 41 43 42 39 38 37 34 32 31 30 32 33 33 33 33 30 26 23 22 22 22 22 21 19 17 15 14 12 9 7 6 5 4 4 5 5 6 7 8 9 11
Wind_Speed
15 17 18 15 13 11 11 11 10 11 11 10 10 9 8 8 8 8 8 8 7 7 7 6 5 4 3 3 4 5 6 6 6 6 7 7 8 8 7 6 4 6 10
18 18 17 15 13 11 11 11 10 10 10 10 10 9 8 8 7 7 7 6 6 6 5 5 4 3 3 3 3 4 4 4 3 3 4 5 6 6 5 4 4 6 9
18 17 16 15 13 12 11 11 10 10 10 10 10 9 8 8 7 6 6 6 5 5 4 4 3 3 3 3 3 2 2 1 1 2 4 4 6 7 6 6 7 8 8
18 16 15 15 13 12 11 11 10 10 11 10 10 9 9 8 7 7 6 5 5 4 4 4 3 3 2 2 2 2 1 2 3 5 5 4 5 9 9 8 7 7 7
16 15 16 16 13 12 11 11 10 10 10 10 10 9 9 8 7 7 6 5 5 4 4 4 3 3 2 2 2 2 2 4 6 8 6 2 4 11 11 9 7 7 6
16 17 17 16 14 12 11 10 10 10 10 10 10 9 9 8 7 7 6 6 5 5 4 4 4 3 3 3 3 3 4 5 7 8 4 3 6 11 12 9 8 7 7
15 16 17 16 14 13 12 10 10 9 9 9 9 9 8 8 7 7 7 6 6 5 5 5 5 4 4 4 5 5 6 7 8 7 4 3 8 13 12 10 8 7 8
15 16 16 16 15 13 12 11 10 9 9 9 9 9 8 8 8 8 7 7 7 6 6 5 5 5 5 5 6 6 7 9 9 8 5 2 10 13 12 10 9 8 8
14 15 14 14 13 13 12 11 10 9 9 9 9 8 9 9 9 9 8 8 8 7 7 7 6 6 7 7 7 8 8 10 9 7 6 3 9 12 12 10 9 8 8
11 12 12 13 12 11 11 11 11 10 9 9 9 9 9 10 10 11 10 9 9 9 9 8 8 8 8 9 9 10 10 9 9 8 3 5 11 11 11 10 9 8 8
8 9 10 11 11 10 11 11 11 10 9 9 9 10 9 7 8 9 11 11 11 11 10 10 10 10 9 10 12 12 10 6 8 5 2 6 10 11 10 9 8 8 8
7 8 8 9 9 9 7 8 7 8 8 7 6 7 6 6 5 6 8 11 12 11 11 11 11 10 9 6 9 12 6 8 7 4 3 9 10 10 10 9 9 9 10
6 6 7 7 7 6 5 6 4 4 5 7 7 6 5 4 4 4 3 5 7 9 7 7 8 6 6 5 4 5 7 7 4 3 4 10 10 10 10 10 10 10 10
5 6 5 6 6 5 4 4 4 4 4 5 5 6 5 3 3 2 2 3 4 4 4 4 4 6 6 6 6 5 6 4 3 1 4 9 10 10 10 11 11 11 11
4 3 5 5 6 4 3 2 3 3 3 4 3 4 4 3 3 3 2 2 3 3 4 4 4 5 5 5 5 5 5 5 4 2 3 8 10 10 11 12 12 12 12
2 3 3 3 5 5 3 2 2 2 2 2 2 3 4 3 2 2 2 2 3 2 2 3 4 3 3 3 5 5 5 5 4 3 3 5 8 10 11 12 13 13 13
3 2 2 3 4 4 3 3 2 2 2 2 2 2 2 2 2 2 2 3 3 3 3 3 4 3 4 4 5 5 4 4 4 4 3 3 4 9 11 12 13 13 13
3 3 1 1 4 4 3 2 1 1 1 1 2 2 2 2 2 2 3 2 2 2 2 3 3 2 3 3 3 4 4 3 5 5 4 4 3 4 8 12 13 13 13
4 4 2 1 1 3 3 3 2 1 1 1 1 2 1 1 2 2 2 2 2 2 2 3 2 2 3 3 4 4 4 4 4 5 5 5 4 4 4 8 12 13 14
4 4 3 1 1 0 2 2 2 1 1 1 1 1 1 1 1 2 2 2 2 2 2 2 2 2 3 3 5 4 4 4 4 4 5 4 4 5 5 5 5 8 13
4 3 2 1 1 1 0 1 2 2 1 1 1 1 1 1 2 2 2 2 2 2 3 2 2 3 3 2 2 3 4 5 4 4 3 3 4 4 4 3 3 3 5
3 3 2 2 1 1 0 1 2 1 1 1 1 1 1 2 2 3 2 2 2 2 3 3 2 2 3 2 2 2 2 3 2 3 2 3 4 3 3 5 4 3 3
2 2 2 2 2 1 1 1 1 1 2 2 2 2 2 2 2 2 2 2 3 3 3 3 3 3 3 3 2 1 1 2 2 2 3 3 3 3 3 3 4 4 4
3 2 2 2 2 2 1 1 1 2 2 1 1 1 2 2 2 2 2 3 3 3 2 3 2 3 3 3 2 2 2 1 1 2 2 2 3 4 4 4 4 3 4
3 3 2 2 2 2 1 1 2 2 1 1 1 2 2 3 3 2 3 2 3 2 2 3 3 3 3 2 1 1 2 2 2 2 3 2 3 3 3 4 3 3 4
4 3 3 2 1 1 1 1 1 2 2 2 2 2 2 1 1 2 2 2 2 2 3 3 3 4 3 2 2 2 1 2 2 2 3 3 3 3 4 4 3 4 4
Wind_Direction
120 130 136 134 135 138 143 146 147 148 147 145 142 139 135 129 123 118 114 111 110 111 112 111 110 106 97 83 71 69 69 69 75 83 89 91 93 95 96 99 116 113 117
121 131 135 134 136 139 144 148 149 149 150 150 148 147 146 142 139 135 130 126 124 122 121 120 118 114 109 100 91 85 80 80 87 104 120 125 125 122 114 99 87 115 125
120 132 137 136 138 140 144 148 150 152 152 154 154 154 154 154 152 150 147 144 141 138 135 135 133 126 119 117 114 109 106 128 186 214 212 186 152 149 136 119 115 126 133
124 136 139 138 140 142 145 149 152 156 159 158 158 160 162 164 164 163 161 159 158 155 151 153 153 147 142 142 150 159 184 231 250 256 244 218 165 152 146 137 135 137 140
129 133 134 142 141 143 146 151 156 160 162 163 164 166 168 170 172 174 175 176 173 171 169 170 171 167 175 180 194 212 235 256 266 265 266 240 142 150 149 147 147 151 151
132 131 138 145 145 146 148 152 159 163 163 165 168 171 173 175 179 183 187 189 187 186 187 188 186 188 203 211 222 238 251 263 273 261 255 188 146 152 151 152 157 163 165
129 130 142 147 148 151 153 155 160 164 165 167 171 175 178 181 185 190 194 196 195 197 202 202 201 202 214 223 231 243 256 267 267 274 266 186 149 154 154 158 164 171 177
127 130 141 149 152 156 159 161 163 165 167 171 176 180 184 188 191 195 201 203 204 208 212 214 214 215 221 230 237 246 255 268 266 273 274 163 148 154 157 162 166 176 185
128 132 146 153 158 162 164 166 168 169 172 177 181 186 191 196 199 203 206 208 211 215 219 222 223 224 228 236 243 249 256 263 278 281 280 146 151 158 161 167 171 181 188
126 134 148 156 159 166 168 173 175 175 178 183 188 194 201 208 211 212 210 212 215 217 222 226 230 232 233 237 243 248 254 264 260 265 259 157 160 162 165 168 178 190 195
131 137 150 153 161 171 171 169 175 180 184 188 197 206 207 213 213 211 219 208 212 219 225 228 231 235 237 238 241 244 249 248 251 246 236 161 165 165 170 175 187 199 205
147 149 157 159 164 175 170 156 176 183 179 194 199 198 207 220 225 221 211 203 209 218 228 233 235 237 238 238 233 233 238 243 253 243 187 172 170 173 179 185 193 206 211
154 159 162 158 157 167 156 158 174 181 175 191 201 197 204 224 229 232 200 192 206 215 225 226 225 229 231 234 237 212 229 244 242 236 182 174 170 181 190 196 202 210 215
156 160 160 157 149 164 152 158 177 186 177 184 194 197 200 211 227 230 215 189 203 212 220 230 218 221 233 242 244 229 228 237 254 219 174 178 179 187 194 204 209 213 217
134 149 158 160 147 147 140 178 177 186 186 187 185 190 206 214 227 232 225 214 226 222 213 232 229 227 232 245 256 249 247 247 259 251 179 192 190 197 202 210 215 218 218
106 136 123 154 142 144 150 171 175 197 179 185 176 190 199 210 223 237 235 230 238 242 237 236 246 243 240 241 253 260 260 260 248 243 199 200 202 208 212 215 217 218 220
94 100 127 155 142 142 162 191 191 195 186 174 175 175 180 216 238 242 248 241 243 246 243 242 251 243 244 246 249 257 257 261 267 257 236 210 208 214 218 222 220 218 220
90 81 86 160 145 150 162 185 197 186 172 170 164 152 173 206 228 247 254 256 254 257 254 244 250 257 257 259 264 264 258 251 256 254 249 232 218 217 218 222 221 219 219
78 77 89 52 123 168 177 183 201 175 189 204 169 154 170 201 238 256 257 261 254 252 258 260 244 254 267 263 260 251 253 249 248 251 250 247 233 221 217 217 217 216 218
81 81 92 89 58 167 184 177 203 185 202 223 166 141 143 195 226 255 254 264 265 258 259 262 261 246 257 256 265 266 257 252 241 241 246 248 236 228 228 223 207 217 219
62 77 81 71 70 43 219 201 216 218 215 235 214 172 175 218 231 236 256 245 247 245 248 252 256 259 252 248 261 278 267 250 239 233 230 242 246 234 223 213 216 211 209
70 61 64 37 30 12 204 237 214 216 224 234 256 212 203 228 236 242 245 256 250 240 246 246 247 242 254 239 238 273 287 272 264 248 225 230 246 241 227 222 214 207 216
82 71 38 28 15 2 330 266 261 230 232 234 216 213 226 235 235 256 247 251 256 241 236 238 239 234 246 251 217 203 229 254 296 256 241 236 230 239 239 227 223 211 218
77 81 67 44 10 346 344 314 284 260 263 267 253 226 226 234 239 236 254 256 256 253 249 244 222 236 235 246 246 230 239 248 253 290 280 261 243 236 236 242 232 220 215
65 63 61 53 18 357 336 312 308 314 316 296 261 237 230 224 218 227 232 244 258 259 263 258 245 235 226 232 246 257 259 259 250 252 277 285 279 249 232 228 222 217 220
41 40 39 49 32 359 341 322 320 322 329 320 298 271 253 236 215 230 237 241 256 263 262 254 242 239 225 227 241 244 247 257 251 251 267 278 273 265 255 237 223 217 217